This is the latest recevied weather packets stored in our database for station/object NB9X. If no packets are shown the sender has not sent any weather packets the latest 10 day(s).
| Time | Temp. | Humidity | Pressure | Rain* | Wind** | Luminosity | Snow |
|---|---|---|---|---|---|---|---|
| 1777744697 | 26.67° C | 100% | 1010.5 hPa | 0 mm | - | - | - |
| 1777744397 | 26.67° C | 100% | 1010.6 hPa | 0 mm | - | - | - |
| 1777744097 | 26.67° C | 100% | 1010.7 hPa | 0 mm | - | - | - |
| 1777743973 | 26.67° C | 100% | 1010.5 hPa | 0 mm | - | - | - |
| 1777743797 | 26.67° C | 100% | 1010.6 hPa | 0 mm | - | - | - |
| 1777743497 | 26.67° C | 100% | 1010.5 hPa | 0 mm | - | - | - |
| 1777743197 | 26.67° C | 100% | 1010.6 hPa | 0 mm | - | - | - |
| 1777742897 | 27.22° C | 100% | 1010.7 hPa | 0 mm | - | - | - |
| 1777742597 | 27.22° C | 100% | 1010.6 hPa | 0 mm | - | - | - |
| 1777742297 | 27.22° C | 100% | 1010.7 hPa | 0 mm | - | - | - |
| 1777742035 | 27.22° C | 100% | 1010.7 hPa | 0 mm | - | - | - |
| 1777741997 | 27.22° C | 100% | 1010.7 hPa | 0 mm | - | - | - |
| 1777741697 | 27.78° C | 100% | 1010.7 hPa | 0 mm | - | - | - |
| 1777741397 | 27.78° C | 100% | 1010.3 hPa | 0 mm | - | - | - |
| 1777741097 | 27.78° C | 100% | 1010.8 hPa | 0 mm | - | - | - |
| 1777740797 | 28.33° C | 100% | 1010.7 hPa | 0 mm | - | - | - |
| 1777740497 | 27.78° C | 100% | 1010.9 hPa | 0 mm | - | - | - |
| 1777740197 | 28.33° C | 100% | 1011 hPa | 0 mm | - | - | - |
| 1777739897 | 28.33° C | 100% | 1011 hPa | 0 mm | - | - | - |
| 1777739597 | 28.89° C | 100% | 1011 hPa | 0 mm | - | - | - |
| 1777739297 | 29.44° C | 100% | 1010.9 hPa | 0 mm | - | - | - |
| 1777738997 | 30° C | 100% | 1010.6 hPa | 0 mm | - | - | - |
| 1777738697 | 29.44° C | 100% | 1010.7 hPa | 0 mm | - | - | - |
| 1777738397 | 30° C | 100% | 1010.5 hPa | 0 mm | - | - | - |
| 1777738097 | 30.56° C | 100% | 1010.3 hPa | 0 mm | - | - | - |
* Rain latest hour (hover to see other rain measurements)
** Current wind speed in m/s (hover to see current wind gust speed)